| time (UTC) | temp C | wind direction | speed KPH | gust KPH | rain 1hr cm | rain 24hr cm | rain mn cm | humidity % | barometer mb |
| 20260505053042 | 6 | 340 | 12.9 | 19.3 | 0.00 | 0.00 | 0.00 | 66 | 1016.9 |
| 20260505051540 | 6 | 344 | 12.9 | 25.7 | 0.00 | 0.00 | 0.00 | 63 | 1016.6 |
| 20260505041504 | 6 | 295 | 1.6 | 3.2 | 0.00 | 0.00 | 0.00 | 60 | 1016.2 |
| 20260505040005 | 6 | 46 | 0.0 | 3.2 | 0.00 | 0.00 | 0.00 | 60 | 1016.3 |
| 20260505034502 | 6 | 46 | 0.0 | 3.2 | 0.00 | 0.00 | 0.00 | 58 | 1016.2 |
| 20260505033033 | 6 | 231 | 3.2 | 4.8 | 0.00 | 0.00 | 0.00 | 57 | 1016.1 |
| 20260505031538 | 7 | 46 | 0.0 | 3.2 | 0.00 | 0.00 | 0.00 | 55 | 1016.1 |
| 20260505030025 | 7 | 1 | 3.2 | 6.4 | 0.00 | 0.00 | 0.00 | 53 | 1015.8 |
| 20260505024524 | 7 | 1 | 3.2 | 6.4 | 0.00 | 0.00 | 0.00 | 52 | 1015.6 |
| 20260505023022 | 7 | 18 | 3.2 | 9.7 | 0.00 | 0.00 | 0.00 | 50 | 1015.5 |
| 20260505021520 | 8 | 13 | 6.4 | 9.7 | 0.00 | 0.00 | 0.00 | 48 | 1015.5 |
| 20260505020020 | 8 | 331 | 6.4 | 14.5 | 0.00 | 0.00 | 0.00 | 46 | 1015.3 |
| 20260505014517 | 8 | 343 | 8.0 | 17.7 | 0.00 | 0.00 | 0.00 | 46 | 1015.1 |
| 20260505013014 | 8 | 345 | 8.0 | 14.5 | 0.00 | 0.00 | 0.00 | 48 | 1014.9 |
| 20260505011513 | 8 | 347 | 8.0 | 14.5 | 0.00 | 0.00 | 0.00 | 49 | 1014.8 |
| 20260505010010 | 8 | 331 | 6.4 | 12.9 | 0.00 | 0.00 | 0.00 | 51 | 1014.7 |
| 20260505004515 | 8 | 355 | 6.4 | 12.9 | 0.00 | 0.00 | 0.00 | 54 | 1014.6 |
| 20260505003007 | 8 | 341 | 9.7 | 17.7 | 0.00 | 0.00 | 0.00 | 53 | 1014.5 |
| 20260505001507 | 8 | 4 | 4.8 | 14.5 | 0.00 | 0.00 | 0.00 | 55 | 1014.6 |
| 20260505000003 | 8 | 269 | 4.8 | 16.1 | 0.00 | 0.00 | 0.00 | 55 | 1014.5 |
| 20260504234503 | 8 | 310 | 4.8 | 20.9 | 0.00 | 0.00 | 0.00 | 55 | 1014.5 |
| 20260504233104 | 8 | 346 | 14.5 | 25.7 | 0.00 | 0.00 | 0.00 | 55 | 1014.4 |
| 20260504231600 | 8 | 358 | 24.1 | 33.8 | 0.00 | 0.00 | 0.00 | 54 | 1014.1 |
| 20260504230029 | 8 | 330 | 6.4 | 16.1 | 0.00 | 0.00 | 0.00 | 56 | 1014.0 |
| 20260504224529 | 8 | 318 | 3.2 | 14.5 | 0.00 | 0.00 | 0.00 | 59 | 1013.8 |
| 20260504223027 | 8 | 319 | 6.4 | 30.6 | 0.00 | 0.00 | 0.00 | 61 | 1014.0 |
| 20260504221528 | 8 | 342 | 19.3 | 32.2 | 0.00 | 0.00 | 0.00 | 53 | 1014.0 |
| 20260504220041 | 10 | 355 | 12.9 | 27.4 | 0.00 | 0.00 | 0.00 | 50 | 1013.8 |
| 20260504214525 | 9 | 335 | 9.7 | 24.1 | 0.00 | 0.00 | 0.00 | 46 | 1013.7 |
| 20260504213021 | 9 | 320 | 3.2 | 17.7 | 0.00 | 0.00 | 0.00 | 46 | 1013.9 |
| 20260504211521 | 8 | 339 | 8.0 | 20.9 | 0.00 | 0.00 | 0.00 | 49 | 1014.1 |
| 20260504210022 | 8 | 315 | 11.3 | 20.9 | 0.00 | 0.00 | 0.00 | 48 | 1014.4 |
| 20260504204533 | 8 | 342 | 19.3 | 32.2 | 0.00 | 0.00 | 0.00 | 47 | 1014.3 |
| 20260504203018 | 8 | 331 | 17.7 | 30.6 | 0.00 | 0.00 | 0.00 | 45 | 1014.2 |
| 20260504201546 | 8 | 358 | 22.5 | 37.0 | 0.00 | 0.00 | 0.00 | 44 | 1014.2 |
| 20260504200044 | 9 | 25 | 27.4 | 40.2 | 0.00 | 0.00 | 0.00 | 45 | 1013.9 |
| 20260504194542 | 10 | 342 | 27.4 | 35.4 | 0.00 | 0.00 | 0.00 | 45 | 1013.9 |
| 20260504193055 | 10 | 345 | 20.9 | 49.9 | 0.00 | 0.00 | 0.00 | 46 | 1013.6 |
| 20260504191540 | 10 | 342 | 16.1 | 33.8 | 0.00 | 0.00 | 0.00 | 48 | 1013.6 |
| 20260504190041 | 10 | 349 | 16.1 | 38.6 | 0.00 | 0.00 | 0.00 | 50 | 1013.7 |
| 20260504184508 | 10 | 312 | 19.3 | 33.8 | 0.00 | 0.00 | 0.00 | 50 | 1013.6 |
| 20260504183009 | 10 | 321 | 19.3 | 33.8 | 0.00 | 0.00 | 0.00 | 50 | 1013.5 |
| 20260504181503 | 10 | 332 | 14.5 | 35.4 | 0.00 | 0.00 | 0.00 | 51 | 1013.5 |
| 20260504180002 | 10 | 342 | 20.9 | 33.8 | 0.00 | 0.00 | 0.00 | 51 | 1013.7 |
| 20260504174601 | 10 | 355 | 17.7 | 37.0 | 0.00 | 0.00 | 0.00 | 53 | 1013.7 |
| 20260504173059 | 10 | 351 | 20.9 | 38.6 | 0.00 | 0.00 | 0.00 | 52 | 1013.8 |
| 20260504171556 | 10 | 339 | 19.3 | 32.2 | 0.00 | 0.00 | 0.00 | 52 | 1013.6 |
| 20260504120109 | 6 | 3 | 19.3 | 27.4 | 0.00 | 0.03 | 0.00 | 66 | 1010.1 |
| 20260504081511 | 3 | 216 | 1.6 | 6.4 | 0.00 | 0.03 | 0.00 | 73 | 1007.9 |